www.pogodaiklimat.ru

Погода и климат >> Архив погоды >> Пакистан >> Ларкана


ПОГОДА в Ларкане

  • Прогноз погоды в Ларкане
  • Монитор погоды в Ларкане

АРХИВ ПОГОДЫ в Ларкане

Время (UTC), дата Ветер
(напр.,м/с)
 
Видим.   Явления Облачность Т
(С)
Тd
(С)
f
(%)
Тe
(С)
Тes
(С)
Комфортность P
(гПа)
Po
(гПа)
Тmin
(С)
Tmax
(С)
R
(мм)
R24
(мм)
S
(см)
15 14.05 С 1 4000 м 4/0
[Ac trans]
+37.0 +21.0 40 +44 +44 опасность
перегрева
1000.7 995.0
18 14.05 З 5 4000 м 4/0
[Ac trans]
+34.0 +20.8 46 +41 +41 опасность
перегрева
1002.4 996.6
21 14.05 Ю 2 4000 м 4/0
[Ac trans]
+31.0 +19.7 51 +37 +37 очень
душно
1001.5 995.7
00 15.05 С 1 4000 м ясно +28.0 +18.8 57 +33 +33 очень
душно
1001.6 995.4
03 15.05 Ю 1 4000 м 4/0
[Ac trans]
+29.0 +19.1 55 +34 +39 очень
душно
1007.5 1001.3 +26.5
06 15.05 Ю 2 4000 м 6/0
[Ac trans]
+33.5 +21.9 51 +42 +54 опасность
перегрева
1007.0 1001.2
09 15.05 Ю 2 4000 м 6/0
[Ac trans]
+38.0 +22.3 41 +47 +59 опасность
перегрева
1005.3 999.6
12 15.05 Ю 2 4000 м 4/0
[Ac trans]
+38.0 +22.3 41 +47 +50 опасность
перегрева
1003.2 997.1 +39.0
15 15.05 Ю 2 4000 м 4/0
[Ac trans]
+35.0 +22.0 47 +44 +44 опасность
перегрева
1004.6 998.8
18 15.05 З 1 4000 м 4/0
[Ac trans]
+31.0 +22.3 60 +40 +40 очень
душно
1006.0 1000.1
21 15.05 З 2 4000 м 8/4 1200 м
[St Ac trans]
+28.0 +21.3 67 +35 +35 очень
душно
1005.1 999.2 4
00 16.05 штиль 0 4000 м 4/0
[Ac trans]
+25.0 +21.3 80 +32 +32 очень
душно
1004.7 998.4
03 16.05 В 1 4000 м 5/0
[Ac lent]
+28.0 +21.3 67 +35 +39 очень
душно
1007.5 1001.7 +24.5
06 16.05 З 1 4000 м 8/3 1200 м
[St Ac lent]
+34.0 +22.5 51 +43 +50 опасность
перегрева
1008.6 1002.5
09 16.05 С 2 4000 м 4/0
[Ac trans]
+36.0 +21.5 43 +44 +58 опасность
перегрева
1007.9 1002.1
12 16.05 С 2 4000 м 4/0
[Ac trans]
+36.0 +21.5 43 +44 +47 опасность
перегрева
1006.8 1000.7 +36.5
15 16.05 Ю 4 4000 м слаб. дождь 10/5 1000 м
[Cu med, cong Ac trans]
+33.0 +22.1 53 +42 +42 опасность
перегрева
1007.6 1001.8 1
18 16.05 Ю 4 4000 м 8/3 1200 м
[Cu hum Ac trans]
+30.0 +21.1 59 +38 +38 очень
душно
1008.9 1003.0
21 16.05 Ю 1 4000 м 5/0
[Ac trans]
+27.0 +20.2 66 +33 +33 очень
душно
1007.6 1001.7
00 17.05 Ю 3 4000 м 5/0
[Ac trans]
+27.0 +20.2 66 +33 +33 очень
душно
1006.3 1000.1
03 17.05 Ю 2 4000 м 8/4 1200 м
[Cu hum Ac trans]
+25.0 +20.5 76 +31 +33 очень
душно
1008.7 1002.4 +24.5
06 17.05 Ю 3 4000 м 5/0
[Ac trans]
+31.0 +23.1 63 +41 +52 опасность
перегрева
1009.4 1003.5
09 17.05 В 3 4000 м ясно +36.0 +23.2 48 +46 +62 опасность
перегрева
1005.8 1000.0
12 17.05 В 2 4000 м ясно +36.5 +23.0 46 +46 +51 опасность
перегрева
1004.1 998.0 +37.0
15 17.05 Ю 2 4000 м 5/0
[Ac trans]
+33.5 +21.9 51 +42 +42 опасность
перегрева
1006.4 1000.6
18 17.05 Ю 1 4000 м 5/0
[Ac trans]
+30.5 +20.9 57 +38 +38 очень
душно
1008.5 1002.6
21 17.05 Ю 1 4000 м 5/0
[Ac trans]
+27.5 +19.5 62 +33 +33 очень
душно
1007.3 1001.4
00 18.05 Ю 1 4000 м 5/0
[Ac trans]
+24.5 +19.1 72 +29 +29 душно 1006.2 999.8
03 18.05 ЮВ 2 4000 м 4/0
[Ac trans]
+27.0 +20.2 66 +33 +37 очень
душно
1007.1 1000.9 +24.0
06 18.05 Ю 1 4000 м 3/0
[Ac trans]
+31.5 +22.9 60 +41 +59 опасность
перегрева
1008.3 1002.4
09 18.05 СВ 2 4000 м 4/0
[Ac trans]
+38.5 +20.2 35 +44 +59 опасность
перегрева
1006.3 1000.6
12 18.05 ЮВ 2 4000 м 5/0
[Ac trans]
+40.0 +19.3 30 +44 +48 опасность
перегрева
1003.7 997.7 +40.5
15 18.05 ЮВ 2 4000 м 5/0
[Ac trans]
+37.0 +19.1 35 +42 +42 опасность
перегрева
1005.0 999.3
18 18.05 ЮВ 2 4000 м 5/0
[Ac trans]
+33.5 +19.2 43 +39 +39 очень
душно
1006.9 1001.1
21 18.05 ЮВ 2 4000 м ясно +30.5 +19.1 51 +36 +36 очень
душно
1005.9 1000.0
00 19.05 ЮВ 2 4000 м ясно +27.0 +19.3 63 +33 +33 очень
душно
1004.9 998.7
03 19.05 ЮВ 2 4000 м ясно +28.0 +19.6 60 +34 +39 очень
душно
1007.0 1000.8 +26.5
06 19.05 ЮВ 2 4000 м 4/0
[Ac trans]
+34.5 +19.6 42 +40 +55 опасность
солнечного
удара
1008.5 1002.7
09 19.05 ЮВ 2 4000 м 4/0
[Ac trans]
+40.0 +19.3 30 +44 +59 опасность
перегрева
1006.1 1000.4
12 19.05 ЮВ 2 4000 м 4/0
[Ac trans]
+41.0 +18.8 28 +45 +49 опасность
перегрева
1004.3 998.4 +41.5
15 19.05 ЮВ 2 4000 м 4/0
[Ac trans]
+38.0 +18.5 32 +42 +42 опасность
перегрева
1005.9 1000.2
18 19.05 штиль 0 4000 м 4/0
[Ac trans]
+35.0 +18.3 37 +39 +39 очень
душно
1007.6 1001.8
21 19.05 ЮВ 1 4000 м 4/0
[Ac trans]
+31.0 +18.8 48 +36 +36 очень
душно
1006.3 1000.4
00 20.05 ЮВ 1 4000 м 4/0
[Ac trans]
+27.0 +19.3 63 +33 +33 очень
душно
1005.5 999.3
03 20.05 СВ 1 4000 м ясно +31.0 +22.3 60 +40 +46 очень
душно
1008.4 1002.2 +26.5
06 20.05 СВ 3 4000 м ясно +35.5 +21.7 45 +44 +59 опасность
перегрева
1009.1 1003.3
09 20.05 СВ 3 4000 м ясно +39.0 +23.5 41 +49 +65 опасность
перегрева
1008.0 1002.3
00 21.05 ЮВ 1 4000 м 4/0
[Ac trans]
+28.0 +21.3 67 +35 +35 очень
душно
1005.9 999.7
06 21.05 СВ 2 4000 м ясно +37.5 +21.6 40 +45 +64 опасность
перегрева
1007.9 1002.2
09 21.05 СВ 2 4000 м 4/0 900 м
[Ac trans]
+41.5 +24.1 37 +52 +66 опасность
перегрева
1006.1 1000.4
12 21.05 СВ 2 4000 м 4/0 900 м
[Ac trans]
+42.0 +23.0 34 +51 +55 опасность
перегрева
1004.3 998.4 +42.0

 

Местоположение метеостанции Ларкана (Пакистан): широта 27.55 долгота 68.17 высота над уровнем моря 52 м.

В архиве по умолчанию представлена погода в Ларкане за последнюю неделю. Архивные данные за месяц целиком и за предыдущие месяцы, начиная с января 2011 года, Вы можете получить, выбрав интересующий диапазон дат из раскрывающегося списка и нажав кнопку "Ввод!".


*Определитесь, кто Вы:
робот инопланетянин человек

Внимание! Время в таблицах - всемирное. Для получения местного времени необходимо прибавить поправку, которая равна 5 ч.

Смотрите также архив погоды в соседних городах и на ближайших метеорологических станциях:

Погода в Мохенджо-Даро (Пакистан) (26 км)
Погода в Суккуре (Пакистан) (62 км)
Погода в Рохри (Пакистан) (73 км)
Погода в Пад Идан (Пакистан) (78 км)
Погода в Джейкобабаде (Пакистан) (88 км)
Погода в Навабшахе (Пакистан) (146 км)
Погода в Хуздаре (Пакистан) (155 км)
Погода в Даду (Пакистан) (168 км)
Погода в Сиби (Пакистан) (224 км)
Погода в Калате (Пакистан) (227 км)

Пояснения к столбцам:

Ветер - указаны скорость ветра в м/с - средняя за 10 мин, порывы в срок и между сроками (в фигурных скобках) и направление, откуда дует ветер: С - северный, СВ - северо-восточный, В - восточный, ЮВ - юго-восточный, Ю - южный, ЮЗ - юго-западный, З - западный, СЗ - северо-западный.
Видимость - горизонтальная дальность видимости в метрах или километрах. При видимости от 1 до 10 км при отсутствии осадков обычно наблюдается дымка, при ухудшении видимости до 1 км и менее - туман. В сухую погоду видимость может ухудшаться дымом, пылью или мглою.
Явления - указаны атмосферные явления, наблюдавшиеся в срок или в последний час перед сроком; фигурными скобками обозначены явления, наблюдавшиеся между сроками (за 1-3 часа до срока); квадратными скобками обозначены град или гололедные отложения с указанием их диаметра в мм.
Облачность - указаны через наклонную черту общая и нижняя облачность в баллах и высота нижней границы облаков в метрах; квадратными скобками обозначены формы облаков: Ci - перистые, Cs - перисто-слоистые, Cc - перисто-кучевые, Ac - высококучевые, As - высокослоистые, Sc - слоисто-кучевые, Ns - слоисто-дождевые, Cu - кучевые, Cb - кучево-дождевые. Подробнее классификацию облаков см. в Атласе облаков (PDF).
T - Температура воздуха - температура, измеренная на высоте 2 м над землей.
Td - Температура точки росы - температура, при понижении до которой содержащийся в воздухе водяной пар достигнет насыщения.
f - Относительная влажность воздуха - влажноcть воздуха, измеренная на высоте 2 м над землей.
Te - Эффективная температура - температура, которую ощущает одетый по сезону человек в тени. Характеристика душности погоды. При расчете учитывается влияние влажности воздуха и скорости ветра на теплоощущения человека.
Tes - Эффективная температура на солнце - температура, которую ощущает человек, с поправкой на солнечный нагрев. Характеристика знойности погоды. Зависит от высоты солнца над горизонтом, облачности и скорости ветра. Ночью, в пасмурную погоду, а также при ветре 12 м/с и более поправка равна нулю.
P - Атмосферное давление - приведенное к уровню моря атмосферное давление.
Po - Атмосферное давление - измеренное на уровне метеостанции атмосферное давление.
Tmin - Минимальная температура - минимум температуры воздуха на высоте 2 м над землей.
Tmax - Максимальная температура - максимум температуры воздуха на высоте 2 м над землей.
R - Количество осадков - Количество выпавших осадков за период времени, мм. При наведении курсора мыши на число - период времени, за который выпало указанное количество осадков.
R24 - Количество осадков - Количество выпавших осадков за 24 часа, мм.
S - Снежный покров - Высота снежного покрова, см. При наведении курсора мыши на число - состояние снежного покрова и степень покрытия местности в баллах.